Location: Bacharowice
(49.9333°N, 19.5833°E)
Time: 22:16:27
(UTC+00:00)

SOZ - Pass Details

Date: 28 September 2021
Orbit: 306 x 16687 km, 52.0° (Epoch: 17 October)

Event Time Altitude Azimuth Distance (km) Brightness Sun altitude
Rises 21:02:39 0° 159° (SSE) 21,993 12.9 -38.8°
Enters shadow 21:26:49 - 156° (SSE) 20,227 12.7 -40.5°
Exits shadow 22:10:11 21° 145° (SE) 14,543 12.0 -42.2°
Maximum altitude 22:36:47 27° 120° (ESE) 9,431 11.2 -42.4°
Drops below altitude 10° 22:55:54 10° 74° (ENE) 6,429 10.9 -42.2°
Sets 22:59:50 0° 63° (ENE) 6,386 11.1 -42.1°
